Location: Trois-Rivi�res
(46.3500°N, 72.5500°W)
Time: 17:34:57
(UTC-04:00)

Envisat - Pass Details

Date: 07 October 2017
Orbit: 764 x 766 km, 98.2° (Epoch: 20 October)

Event Time Altitude Azimuth Distance (km) Brightness Sun altitude
Exits shadow 19:38:11 22° 110° (ESE) 1,647 4.1 -14.6°
Maximum altitude 19:40:32 32° 65° (ENE) 1,301 3.7 -15.0°
Drops below altitude 10° 19:45:00 10° 4° (N) 2,313 5.5 -15.8°
Sets 19:47:31 0° 355° (N) 3,244 6.4 -16.2°
